Wetbulb
34.05 34.93 35.41 35.71 36.24 37.29 34.49 34.64 30.38 32.67 34.74 34.42 35.73 35.95 36.93 38.03 39.78 39.55 39.85 40.46 40.26 40.06 40.15 40.93 42.59 43.47 44.35 45.14 46.02 47.02 47.14 47.15 47.41 48.06 47.93 47.66 48.22 49.71 51.45 51.95 53.29 54.19 53.96 54.56
28.66 33.72 33.81 32.41 34.92 35.81 36.21 36.32 35.63 35.95 33.78 37.20 37.75 36.54 36.34 36.40 38.72 37.68 38.31 39.65 40.18 41.01 41.30 41.43 42.19 43.11 43.93 44.05 45.02 46.01 45.78 46.62 47.46 47.62 47.74 47.71 47.84 47.99 48.56 49.82 50.75 51.06 52.27 53.20
22.23 28.96 30.43 27.07 31.89 34.46 31.67 32.14 33.27 28.10 31.63 34.18 33.69 34.89 35.27 35.62 36.73 37.22 38.12 38.76 39.41 40.16 40.82 41.52 41.82 42.89 42.74 43.51 44.14 44.48 44.94 46.03 46.44 46.72 46.91 47.39 48.28 47.82 47.45 47.48 49.09 49.15 50.20 50.71
21.64 25.87 18.85 29.45 34.28 35.34 32.11 32.13 32.09 32.02 32.78 33.61 33.59 34.71 35.79 36.67 35.96 36.32 37.98 38.20 38.51 39.31 40.42 41.43 41.51 42.79 42.64 43.38 42.47 43.16 43.88 44.87 45.13 45.95 45.83 46.28 46.93 47.38 47.29 46.95 47.18 48.14 49.66 49.72
19.92 20.09 25.88 28.87 30.77 29.90 29.79 30.08 32.64 31.07 32.55 33.61 34.60 32.62 32.59 37.71 37.84 36.85 37.39 38.90 39.17 40.28 40.65 39.92 41.06 42.22 42.39 42.68 42.87 42.12 43.27 43.71 45.08 45.44 45.03 45.12 44.97 45.47 47.10 47.38 47.58 47.22 48.76 49.52
21.79 19.72 19.90 26.52 31.68 35.31 35.57 27.63 33.20 33.31 32.24 32.11 32.57 26.81 29.42 35.87 37.33 38.23 38.70 39.12 39.36 40.35 41.32 41.61 41.73 41.34 40.96 40.85 41.72 42.46 43.38 43.85 45.05 45.10 44.58 44.15 44.37 44.49 45.84 46.20 47.88 49.51 49.07 48.89
25.73 22.59 24.98 30.08 33.09 34.96 25.92 25.29 33.64 34.45 33.13 32.16 29.91 31.12 34.29 37.87 38.24 38.59 39.44 39.94 40.95 40.99 39.67 39.84 41.50 41.94 39.56 41.41 40.93 43.29 43.40 44.40 44.47 44.23 43.61 43.90 43.80 44.16 44.45 45.17 47.01 47.51 48.02 48.82
22.65 21.81 22.47 34.89 33.19 27.40 30.35 32.61 33.55 32.56 32.66 33.17 34.45 35.96 36.92 37.68 37.93 38.69 38.84 39.26 40.20 39.53 40.14 40.90 40.67 40.59 40.74 40.39 42.57 42.80 43.19 43.36 43.40 43.63 43.82 45.02 42.70 42.83 43.30 43.78 44.39 44.51 46.41 47.57
25.18 23.83 32.04 33.27 31.33 34.21 34.08 32.64 32.94 32.77 34.72 35.51 35.16 35.40 36.41 36.56 37.47 38.22 38.79 39.79 40.74 39.21 39.66 40.21 39.94 40.76 39.66 41.07 42.09 42.51 42.18 42.06 42.37 43.34 43.68 44.01 42.39 42.11 42.07 43.37 43.20 44.55 45.50 45.94
24.61 27.64 29.67 32.81 34.81 33.57 34.64 34.05 35.23 35.55 35.71 36.21 34.77 35.45 35.03 35.74 36.21 36.96 38.07 38.28 39.64 38.90 39.03 39.47 40.46 40.38 41.09 42.01 42.61 42.19 41.49 41.44 42.25 42.02 43.03 43.62 43.93 43.62 42.70 42.46 42.70 43.50 43.58 44.36
25.25 28.73 30.66 32.73 32.61 34.10 35.36 36.22 35.91 36.16 35.73 34.80 34.21 33.72 33.93 33.57 33.87 34.85 35.57 36.68 37.08 36.68 37.40 37.00 37.74 38.11 39.87 41.90 42.55 41.27 41.49 41.91 42.07 42.67 42.49 42.61 43.42 43.44 43.33 43.92 44.36 43.59 44.04 44.52
23.47 30.98 30.70 30.32 33.36 35.80 34.75 34.41 34.59 33.66 32.76 33.78 33.37 31.99 32.12 31.09 32.02 32.33 32.51 33.89 33.83 34.56 34.92 35.59 36.24 36.69 37.70 39.15 39.51 38.33 37.94 39.81 40.96 42.02 42.19 42.48 42.35 42.30 45.96 46.35 46.72 46.71 47.08 46.72
29.44 32.70 32.58 33.43 34.53 35.01 33.58 33.38 33.84 32.61 32.55 30.99 31.39 31.02 30.74 30.09 31.15 33.25 32.21 32.69 32.80 33.33 34.13 34.42 34.65 34.90 36.28 37.76 38.12 37.89 37.49 38.46 39.40 40.93 41.19 41.83 42.29 42.04 41.16 43.85 45.78 46.06 47.04 47.87
34.95 32.89 30.08 32.56 30.54 33.25 33.27 33.06 33.46 32.45 31.51 30.87 30.35 30.30 30.07 29.58 30.29 30.33 30.88 32.62 34.01 34.52 34.40 35.16 35.44 35.56 37.55 38.15 37.96 37.80 37.65 39.50 39.01 39.20 40.42 40.04 40.19 40.52 40.99 40.48 40.54 41.86 45.28 46.19
33.54 33.15 31.74 31.28 32.03 31.81 32.30 31.78 29.59 28.64 29.15 28.92 30.00 29.23 28.95 28.18 28.65 29.67 31.89 33.09 33.57 33.86 34.53 31.37 31.31 32.35 34.95 35.74 34.28 34.07 34.54 35.58 36.71 37.32 38.06 39.01 39.26 39.62 40.61 40.08 39.76 40.48 42.63 44.62
31.71 32.21 31.28 30.28 29.75 29.65 29.51 28.73 27.42 28.07 28.43 28.81 28.07 28.14 28.41 29.19 29.94 31.10 31.15 32.52 31.52 29.82 31.05 30.81 30.95 32.45 33.41 33.17 32.44 32.58 33.88 34.88 34.98 35.27 36.63 38.28 38.74 38.46 38.77 39.61 40.89 41.76 41.90 42.09
28.52 28.06 28.35 27.13 27.68 28.09 28.24 28.06 28.75 28.15 28.61 27.85 28.43 28.74 28.87 29.08 28.45 29.43 28.86 31.44 30.57 30.84 31.39 31.41 32.06 33.68 32.60 32.64 33.47 32.23 31.91 32.17 33.89 32.98 33.19 34.22 35.69 38.10 39.22 39.33 39.12 39.63 40.36 42.00
31.31 30.02 28.93 28.07 28.56 28.73 28.41 29.40 29.27 28.92 28.31 28.96 28.91 28.52 28.25 28.46 26.69 27.60 28.39 29.89 28.78 29.29 29.56 31.95 32.95 31.86 31.51 31.40 31.29 30.28 30.08 30.20 30.14 29.78 30.49 31.16 31.33 32.39 34.42 35.62 38.23 40.86 42.05 43.53
31.29 29.94 29.53 30.18 29.38 28.96 29.02 29.12 28.98 29.52 29.14 29.16 27.81 26.72 27.21 27.93 26.86 26.89 27.61 26.96 25.16 26.09 26.85 30.33 32.01 30.91 29.99 30.85 30.91 29.53 28.70 28.31 28.14 28.38 29.20 29.38 28.91 29.30 30.27 30.91 31.59 32.39 33.75 38.93
30.24 30.34 30.24 29.80 29.96 29.90 29.48 29.96 29.28 28.92 28.48 27.93 26.13 25.05 24.23 25.25 25.33 24.65 24.84 23.83 24.52 26.98 27.58 29.33 29.18 28.84 28.99 28.62 30.25 28.17 27.96 27.56 27.14 27.24 27.78 26.97 27.26 26.89 27.67 28.98 28.92 29.47 30.05 31.10
29.77 30.09 29.04 28.99 29.25 30.40 29.98 29.66 27.93 26.75 26.83 26.60 24.22 22.94 22.94 23.91 24.75 23.82 22.12 21.98 24.45 27.74 27.16 28.82 28.12 27.62 27.41 27.75 26.92 26.37 27.09 26.60 26.25 26.14 26.58 26.22 26.23 26.01 26.08 27.07 27.15 27.60 27.97 28.40
30.27 29.70 28.94 29.38 29.49 29.02 29.02 27.82 26.83 26.51 25.60 24.82 24.15 23.49 22.29 21.52 22.55 22.07 22.43 23.08 24.73 28.52 25.51 25.99 26.94 29.04 27.14 27.30 25.38 24.77 25.38 25.67 25.59 25.70 25.72 26.19 25.90 25.61 25.78 26.33 26.23 26.67 27.26 27.47
30.26 31.10 29.44 29.55 28.99 27.83 27.65 26.57 25.45 25.76 24.31 23.43 22.25 22.46 20.42 20.92 19.73 20.59 19.83 23.48 24.91 25.94 23.67 25.46 29.23 29.24 27.98 24.10 23.91 23.94 23.55 24.63 24.41 24.38 25.37 25.47 25.74 25.96 25.47 25.61 26.52 26.72 26.90 27.24
29.98 30.49 29.71 30.43 28.00 26.40 23.81 24.77 24.60 24.93 23.52 24.38 23.25 21.02 18.69 18.86 19.16 21.36 21.54 25.16 27.43 26.10 23.78 26.36 27.38 28.24 26.26 22.61 22.71 22.89 22.65 23.79 24.53 24.12 23.67 26.52 24.83 25.17 25.44 25.90 26.06 26.98 26.98 27.10
30.96 29.97 29.79 27.61 25.50 23.83 23.71 23.55 23.07 22.14 21.01 20.20 20.04 20.57 20.43 20.11 16.86 18.95 18.32 20.22 25.21 24.37 20.27 25.27 27.09 26.84 21.48 21.14 20.58 21.32 21.31 22.09 23.86 23.68 22.18 23.28 23.65 24.26 24.28 24.89 25.46 26.16 25.94 26.42
30.10 28.40 27.74 26.16 24.27 24.04 22.70 22.24 20.13 20.07 21.00 19.88 18.75 18.27 19.18 19.24 19.39 18.65 18.69 23.63 20.71 23.60 20.82 20.11 22.26 22.20 19.86 19.97 19.95 18.86 18.86 19.36 21.71 21.71 21.75 21.44 22.86 23.12 23.41 23.74 24.12 24.75 25.45 25.88
28.20 29.10 24.88 24.14 24.76 23.99 23.03 22.76 20.72 17.01 18.70 19.42 18.69 17.32 16.97 17.92 18.38 20.13 21.68 15.84 14.63 14.31 14.86 15.57 15.07 19.50 18.50 19.60 15.75 15.15 16.34 15.61 21.05 20.67 20.11 20.74 21.59 23.46 23.75 24.11 24.36 24.82 25.22 25.63
MSLP
1019.85 1019.05 1018.52 1018.06 1017.65 1017.47 1017.60 1017.85 1018.50 1018.42 1018.79 1019.89 1020.05 1020.09 1019.82 1019.46 1018.92 1018.74 1018.59 1018.29 1018.03 1017.81 1017.44 1017.01 1016.59 1016.10 1015.60 1015.01 1014.36 1013.71 1013.23 1012.73 1012.15 1011.59 1011.02 1010.52 1010.17 1009.90 1009.53 1009.21 1009.11 1009.09 1009.26 1009.36
1020.89 1019.81 1018.97 1018.41 1018.04 1017.74 1017.96 1018.13 1018.37 1019.01 1019.80 1020.46 1020.64 1020.47 1020.10 1020.05 1019.68 1019.36 1019.03 1018.66 1018.39 1018.01 1017.59 1017.25 1016.83 1016.29 1015.76 1015.25 1014.64 1014.06 1013.47 1012.93 1012.36 1011.75 1011.26 1010.83 1010.22 1009.73 1009.30 1008.97 1008.61 1008.34 1008.38 1008.38
1022.10 1021.01 1019.82 1019.68 1019.80 1018.58 1019.12 1019.56 1019.71 1020.43 1021.39 1021.05 1020.90 1020.84 1020.43 1020.28 1020.01 1019.71 1019.35 1019.17 1018.91 1018.45 1017.92 1017.36 1016.83 1016.34 1015.80 1015.24 1014.69 1014.18 1013.69 1013.03 1012.45 1011.86 1011.42 1010.91 1010.29 1009.83 1009.29 1008.82 1008.26 1008.12 1007.74 1007.53
1023.51 1022.44 1021.68 1022.00 1021.00 1020.40 1020.42 1021.08 1021.34 1021.62 1021.74 1021.79 1021.75 1021.41 1020.80 1020.45 1020.30 1019.97 1019.65 1019.40 1019.08 1018.57 1018.02 1017.32 1016.78 1016.26 1015.74 1015.16 1014.65 1014.11 1013.62 1013.07 1012.53 1012.01 1011.52 1010.95 1010.34 1009.81 1009.24 1008.69 1008.13 1007.67 1007.28 1006.90
1024.16 1023.60 1022.50 1022.01 1022.10 1022.12 1021.66 1022.25 1022.27 1022.43 1022.24 1021.95 1021.54 1021.31 1021.06 1020.50 1020.26 1019.98 1019.69 1019.18 1018.70 1018.25 1017.80 1017.30 1016.78 1016.24 1015.75 1015.01 1014.52 1014.10 1013.54 1012.90 1012.39 1011.97 1011.42 1010.89 1010.34 1009.70 1009.01 1008.49 1007.85 1007.17 1006.68 1006.28
1024.61 1024.40 1023.54 1023.43 1022.68 1021.49 1020.92 1022.29 1022.47 1022.26 1022.11 1021.96 1021.64 1021.64 1021.44 1020.84 1020.37 1019.84 1019.39 1018.97 1018.47 1017.95 1017.42 1016.98 1016.50 1016.02 1015.60 1015.16 1014.60 1013.91 1013.27 1012.76 1012.21 1011.72 1011.34 1010.68 1010.09 1009.44 1008.73 1008.19 1007.55 1006.82 1006.04 1005.64
1024.78 1024.53 1023.74 1023.37 1022.49 1021.57 1021.80 1022.91 1022.40 1022.49 1022.42 1022.33 1022.31 1022.13 1021.34 1020.61 1019.98 1019.49 1019.02 1018.48 1017.91 1017.46 1017.04 1016.53 1016.07 1015.65 1015.36 1014.73 1014.30 1013.59 1013.03 1012.40 1011.84 1011.26 1010.91 1010.35 1009.68 1009.11 1008.48 1007.76 1007.16 1006.53 1005.92 1005.16
1025.27 1024.59 1023.90 1023.24 1022.82 1023.37 1023.22 1022.50 1022.44 1022.40 1022.30 1022.20 1021.95 1021.31 1020.68 1020.11 1019.57 1019.01 1018.43 1017.91 1017.47 1016.95 1016.47 1015.96 1015.61 1015.24 1014.75 1014.28 1013.63 1013.09 1012.55 1012.04 1011.51 1010.84 1010.29 1009.66 1009.28 1008.66 1008.11 1007.54 1006.91 1006.21 1005.56 1004.86
1026.03 1025.00 1023.41 1022.99 1023.15 1022.88 1022.71 1022.75 1022.48 1022.24 1022.00 1021.70 1021.44 1021.12 1020.66 1020.03 1019.40 1018.75 1018.15 1017.51 1016.88 1016.42 1015.83 1015.42 1015.06 1014.60 1014.11 1013.56 1013.05 1012.51 1012.00 1011.50 1010.95 1010.35 1009.71 1009.06 1008.66 1008.16 1007.73 1007.20 1006.66 1006.01 1005.36 1004.60
1025.57 1024.67 1024.01 1023.35 1022.35 1022.48 1022.47 1022.30 1022.09 1022.09 1021.90 1021.72 1021.63 1021.35 1020.90 1020.42 1019.93 1019.37 1018.71 1018.06 1017.30 1016.81 1016.12 1015.43 1014.97 1014.66 1014.07 1013.19 1012.45 1011.87 1011.25 1010.74 1010.22 1009.74 1009.17 1008.59 1008.02 1007.58 1007.19 1006.78 1006.24 1005.68 1004.99 1004.21
1025.10 1024.39 1023.75 1022.90 1022.73 1022.42 1022.05 1022.07 1022.14 1022.19 1022.41 1022.41 1022.18 1021.73 1021.32 1020.71 1020.21 1019.65 1019.08 1018.29 1017.68 1017.09 1016.39 1015.97 1015.45 1014.85 1014.32 1013.58 1012.80 1012.02 1011.26 1010.46 1009.70 1009.06 1008.53 1007.99 1007.43 1006.84 1006.43 1006.00 1005.74 1005.08 1004.43 1003.80
1024.49 1023.92 1023.78 1023.25 1022.70 1022.52 1022.53 1022.69 1022.74 1022.67 1022.36 1022.36 1022.48 1022.24 1021.84 1021.33 1020.74 1020.02 1019.20 1018.52 1017.87 1017.25 1016.51 1015.75 1015.18 1014.45 1014.02 1013.43 1012.86 1012.27 1011.52 1010.79 1009.94 1008.96 1008.05 1007.34 1006.72 1006.08 1005.48 1005.07 1004.71 1004.19 1003.60 1003.03
1023.77 1023.18 1023.27 1022.85 1022.86 1022.79 1023.08 1023.38 1023.44 1023.50 1023.37 1023.11 1022.85 1022.50 1022.07 1021.45 1020.85 1020.07 1019.47 1018.67 1017.89 1017.04 1016.30 1015.65 1014.99 1014.22 1013.59 1012.86 1012.24 1011.53 1010.77 1010.03 1009.36 1008.77 1008.02 1007.28 1006.58 1005.95 1005.01 1003.91 1003.51 1003.16 1002.41 1001.83
1022.69 1022.77 1022.91 1022.90 1023.28 1023.50 1023.64 1023.73 1023.79 1023.86 1023.84 1023.65 1023.32 1022.99 1022.47 1021.89 1021.11 1020.30 1019.46 1018.69 1017.86 1017.05 1016.34 1015.62 1014.87 1014.21 1013.73 1013.22 1012.44 1011.70 1010.95 1010.20 1009.25 1008.43 1007.66 1006.81 1006.20 1005.51 1004.80 1003.99 1003.12 1001.82 1001.10 1000.92
1022.60 1022.55 1022.88 1023.27 1023.48 1023.74 1023.93 1024.03 1024.05 1024.01 1023.88 1023.70 1023.54 1023.16 1022.65 1021.95 1021.13 1020.38 1019.66 1018.87 1018.20 1017.32 1016.67 1016.51 1015.70 1014.90 1014.16 1013.30 1012.46 1011.67 1011.01 1010.19 1009.26 1008.40 1007.65 1006.73 1005.86 1005.05 1004.29 1003.46 1002.69 1001.71 1000.70 999.63
1022.32 1022.60 1023.06 1023.40 1023.71 1024.09 1024.30 1024.30 1024.22 1024.16 1024.14 1023.95 1023.65 1023.23 1022.72 1022.09 1021.38 1020.61 1020.11 1019.38 1018.61 1018.08 1017.54 1016.88 1015.98 1015.20 1014.33 1013.46 1012.58 1011.69 1010.85 1010.11 1009.30 1008.27 1007.25 1006.22 1005.29 1004.50 1003.65 1002.85 1001.78 1000.81 999.99 999.18
1022.52 1022.91 1023.33 1023.67 1024.02 1024.25 1024.32 1024.28 1024.40 1024.39 1024.21 1024.11 1023.81 1023.37 1022.76 1022.15 1021.64 1021.07 1020.60 1019.94 1019.41 1018.73 1018.19 1017.38 1016.41 1015.63 1014.75 1013.80 1012.77 1011.97 1011.17 1010.33 1009.41 1008.56 1007.77 1006.83 1005.73 1004.34 1003.26 1002.30 1001.31 1000.32 999.33 998.67
1022.63 1022.99 1023.36 1023.68 1023.94 1024.13 1024.22 1024.28 1024.35 1024.23 1024.16 1024.14 1023.90 1023.51 1022.98 1022.39 1022.21 1021.64 1021.08 1020.35 1019.68 1018.93 1018.46 1017.67 1016.82 1015.97 1015.15 1014.24 1013.38 1012.70 1011.88 1010.97 1010.09 1009.25 1008.33 1007.30 1006.40 1005.39 1004.06 1002.96 1001.57 999.85 998.41 997.56
1022.74 1023.04 1023.32 1023.54 1023.68 1023.84 1023.99 1024.15 1024.21 1024.15 1024.11 1023.94 1023.88 1023.64 1023.37 1023.00 1022.72 1022.17 1021.53 1020.86 1020.30 1019.39 1018.84 1018.01 1017.11 1016.38 1015.61 1014.81 1013.99 1013.33 1012.49 1011.61 1010.74 1009.87 1009.00 1008.12 1007.11 1006.14 1005.00 1003.94 1002.70 1001.47 999.98 998.15
1022.82 1022.99 1023.20 1023.37 1023.49 1023.70 1023.86 1023.94 1024.03 1024.04 1024.07 1024.00 1024.09 1023.94 1023.72 1023.38 1023.01 1022.57 1021.98 1021.44 1021.02 1020.24 1019.52 1018.46 1017.49 1016.78 1016.16 1015.56 1014.70 1013.99 1013.21 1012.37 1011.63 1010.86 1009.97 1009.06 1008.01 1007.03 1006.01 1004.89 1003.76 1002.55 1001.40 1000.21
1022.82 1022.99 1023.17 1023.31 1023.45 1023.61 1023.75 1023.85 1024.03 1024.12 1024.17 1024.19 1024.30 1024.25 1024.06 1023.71 1023.31 1022.89 1022.41 1021.83 1021.34 1020.44 1019.78 1018.89 1018.02 1017.36 1016.85 1016.29 1015.65 1014.92 1014.09 1013.28 1012.49 1011.72 1010.81 1009.89 1008.85 1007.89 1006.91 1005.74 1004.77 1003.69 1002.56 1001.42
1022.78 1022.92 1023.10 1023.25 1023.45 1023.61 1023.73 1023.92 1024.07 1024.09 1024.18 1024.29 1024.38 1024.26 1024.11 1023.81 1023.51 1023.18 1022.82 1022.52 1021.65 1020.80 1020.26 1019.49 1018.66 1018.07 1017.63 1017.15 1016.51 1015.87 1015.05 1014.16 1013.36 1012.58 1011.73 1010.84 1009.94 1009.00 1007.93 1006.91 1005.91 1004.82 1003.66 1002.52
1022.59 1022.70 1022.89 1023.11 1023.41 1023.48 1023.65 1023.91 1023.99 1024.08 1024.18 1024.34 1024.43 1024.42 1024.36 1024.07 1023.83 1023.59 1022.99 1022.52 1021.83 1021.33 1020.90 1020.10 1019.25 1018.74 1018.36 1018.00 1017.46 1016.78 1016.00 1015.09 1014.30 1013.56 1012.67 1011.88 1011.02 1010.07 1009.15 1008.17 1007.17 1006.13 1004.97 1004.02
1022.27 1022.49 1022.71 1022.94 1023.09 1023.37 1023.74 1023.96 1023.96 1024.04 1024.17 1024.30 1024.43 1024.48 1024.35 1024.15 1023.94 1023.54 1023.22 1022.77 1022.06 1021.56 1021.32 1020.54 1019.81 1019.37 1019.10 1018.75 1018.29 1017.59 1016.83 1015.99 1015.15 1014.44 1013.73 1012.76 1011.98 1011.02 1010.03 1009.08 1008.07 1007.16 1006.18 1005.17
1022.06 1022.30 1022.60 1022.81 1023.07 1023.48 1023.87 1023.94 1024.05 1024.24 1024.35 1024.42 1024.45 1024.28 1024.07 1023.83 1023.85 1023.46 1023.04 1022.69 1022.28 1021.87 1021.61 1021.15 1020.51 1020.03 1019.72 1019.33 1018.89 1018.26 1017.66 1016.89 1015.84 1015.19 1014.50 1013.62 1012.74 1011.82 1010.93 1010.05 1009.07 1008.02 1007.16 1006.24
1021.90 1022.22 1022.50 1022.67 1022.98 1023.44 1023.73 1023.95 1024.37 1024.37 1024.41 1024.54 1024.40 1024.38 1023.95 1023.69 1023.50 1023.23 1023.00 1022.74 1022.52 1022.20 1021.94 1021.52 1021.04 1020.56 1020.13 1019.65 1019.13 1018.56 1017.97 1017.33 1016.45 1015.72 1015.05 1014.24 1013.33 1012.51 1011.63 1010.73 1009.78 1008.82 1007.92 1006.91
1021.96 1022.25 1022.58 1022.80 1023.03 1023.37 1023.62 1023.87 1024.27 1024.51 1024.30 1024.18 1024.24 1024.09 1023.72 1023.43 1023.26 1023.04 1022.88 1022.79 1022.60 1022.38 1022.08 1021.66 1021.20 1020.77 1020.15 1019.73 1019.20 1018.65 1018.08 1017.44 1016.79 1016.04 1015.39 1014.63 1013.80 1012.93 1012.10 1011.24 1010.34 1009.44 1008.50 1007.58
Wind_Speed
6 8 4 5 6 7 5 7 5 3 6 7 6 6 7 7 7 7 7 7 6 7 7 8 10 12 12 11 12 13 12 8 8 8 8 8 7 8 10 10 12 13 13 14
5 9 11 11 11 12 11 8 9 6 2 8 5 6 10 9 13 8 8 9 8 9 9 10 11 12 13 11 13 12 13 11 7 7 8 8 8 8 7 9 10 9 12 14
5 6 7 3 12 9 15 12 4 7 2 6 8 10 12 6 10 9 7 8 10 11 11 11 10 10 12 11 9 10 12 13 8 7 10 12 11 9 8 8 9 10 11 11
4 6 3 5 12 12 15 13 11 8 9 9 8 7 9 5 8 9 6 6 6 6 11 12 8 13 10 10 8 8 10 12 7 10 11 12 12 12 10 6 7 8 10 11
2 2 3 9 10 7 5 7 10 10 9 7 7 4 4 5 5 4 5 8 7 8 10 7 11 12 13 14 12 8 12 10 9 11 12 13 11 14 11 10 9 7 8 10
1 0 3 2 10 18 5 4 9 11 10 9 7 8 4 8 8 11 9 9 10 11 11 12 11 9 11 9 12 15 13 10 10 11 11 13 13 12 9 11 12 9 9 8
7 4 1 3 12 9 1 6 12 7 8 7 6 5 8 10 10 8 10 14 13 13 9 8 10 11 8 12 12 13 8 12 15 10 10 11 11 10 11 12 11 10 10 10
4 2 5 11 5 6 7 5 6 3 3 5 7 11 13 13 12 13 14 11 11 11 11 10 8 8 12 11 11 9 10 13 12 13 10 10 10 11 12 10 8 12 11 10
5 6 10 3 2 6 5 4 4 5 7 9 12 11 11 10 13 12 13 14 13 10 12 9 8 10 12 11 9 11 11 12 11 13 13 12 9 9 8 9 9 10 9 10
5 4 7 11 13 3 1 4 6 5 7 10 12 14 14 14 14 14 14 15 14 15 16 15 12 10 13 16 13 12 13 12 11 11 12 11 9 7 7 7 9 9 10 10
7 9 7 7 4 7 9 6 7 8 7 10 12 14 15 15 16 15 16 14 14 14 13 13 14 15 14 14 14 13 13 13 12 11 11 11 11 9 8 8 10 12 12 11
7 8 6 7 6 5 6 8 11 14 17 14 11 13 15 15 15 16 16 17 15 15 17 16 16 17 15 15 14 15 15 12 11 11 10 10 10 9 12 14 18 21 23 18
6 6 7 8 1 7 6 10 11 11 11 13 15 15 16 16 14 19 16 16 17 17 17 17 16 17 17 14 15 16 15 15 12 12 11 9 9 10 12 15 22 22 24 22
12 5 1 5 4 5 7 9 11 9 9 11 13 13 14 15 16 16 15 16 16 15 15 16 17 16 14 15 15 15 15 22 12 10 11 10 11 12 13 14 14 16 18 17
3 3 3 2 4 6 7 7 8 9 10 12 12 13 13 15 15 15 14 14 14 14 13 15 14 14 14 15 16 16 13 11 11 11 11 14 12 13 13 16 16 16 14 17
2 5 6 6 6 5 5 6 7 9 10 11 12 13 14 13 13 13 13 14 12 12 13 14 15 16 16 15 15 13 12 22 19 13 12 12 11 12 12 13 14 12 12 12
3 4 3 3 3 4 5 5 5 6 8 10 12 13 13 13 12 13 13 13 12 12 13 14 15 15 15 15 15 11 10 12 22 11 11 12 12 13 12 13 13 14 14 15
5 2 2 2 2 3 3 4 6 8 7 8 10 11 11 12 12 13 12 12 13 12 15 15 16 15 14 16 14 11 11 11 12 12 12 12 12 12 12 13 16 15 14 14
3 2 2 1 3 2 2 3 5 6 6 8 9 10 10 10 11 11 11 11 13 13 15 16 25 18 15 20 18 11 12 13 13 12 12 18 13 12 12 13 13 14 16 15
2 2 0 2 1 1 3 1 2 5 6 7 8 8 8 9 10 10 10 10 12 11 14 16 15 14 15 17 22 11 13 13 13 12 13 13 13 13 13 19 16 14 14 14
2 2 2 2 0 3 2 2 3 3 4 4 5 5 7 7 8 9 9 8 12 14 15 19 15 12 10 14 14 12 12 12 13 12 13 13 13 14 15 15 15 15 15 14
2 3 4 3 1 3 3 2 2 1 2 3 3 4 5 6 7 6 4 7 7 19 11 9 10 21 15 20 10 12 13 14 12 12 12 13 13 14 14 14 15 15 15 16
5 5 4 2 4 4 2 2 1 1 2 1 2 4 3 3 3 6 8 10 6 13 8 8 19 23 22 10 11 11 12 12 13 13 12 13 13 12 12 14 14 14 14 15
5 5 4 4 3 2 2 2 2 1 1 2 1 2 2 1 3 3 4 9 14 14 10 11 15 21 19 8 9 10 11 10 11 11 12 18 12 12 13 13 13 12 13 15
5 5 4 5 4 2 2 2 1 1 3 3 2 3 4 2 2 4 3 4 12 9 5 14 17 18 7 7 8 8 9 9 10 10 11 11 11 12 12 13 13 14 13 13
5 4 3 4 3 3 2 1 1 1 1 1 2 3 3 2 2 3 2 6 3 9 6 5 6 6 4 5 7 8 7 8 9 9 11 10 10 10 11 12 12 12 12 13
3 5 1 1 1 2 2 3 2 2 2 3 3 3 2 2 3 3 5 3 3 4 4 5 4 6 5 6 5 5 5 4 11 10 9 9 10 10 10 11 12 11 12 12
Wind_Direction
300 298 295 258 265 281 255 229 196 272 353 69 37 38 359 349 1 29 25 21 26 19 2 354 353 351 345 341 343 344 339 334 344 342 340 334 298 265 249 226 227 227 225 226
297 284 280 277 271 262 241 255 264 228 142 359 9 23 14 22 36 29 14 10 7 10 0 351 342 341 338 333 339 337 336 329 323 342 337 329 324 314 283 258 245 226 226 226
269 350 305 17 338 315 79 43 41 61 343 337 5 16 347 17 19 3 352 13 5 348 342 335 326 325 321 319 323 327 329 324 319 336 338 332 321 315 307 285 266 251 240 226
277 349 252 120 24 61 86 59 47 38 17 18 1 341 317 40 12 347 356 349 331 315 320 317 316 323 310 316 307 312 322 322 320 338 331 327 321 319 308 288 274 260 254 244
238 259 251 19 11 342 321 47 28 20 348 328 318 318 327 329 342 314 314 312 301 306 301 298 314 311 313 316 317 312 319 310 317 328 321 319 315 314 310 309 296 266 253 255
78 353 279 39 346 335 315 163 357 337 326 323 337 347 293 321 326 321 311 309 315 313 304 303 300 296 303 308 315 311 309 302 311 314 310 308 307 303 301 303 299 291 280 261
254 233 233 4 353 329 265 333 330 331 323 341 341 249 281 307 305 297 301 301 299 301 286 279 290 297 286 302 294 294 292 311 305 298 294 293 300 302 303 302 306 301 292 281
356 298 245 357 5 44 269 284 312 332 287 281 282 298 302 301 300 301 299 294 292 289 288 286 281 281 290 290 280 282 295 300 292 299 294 298 292 294 297 298 298 310 303 297
189 241 316 3 319 252 254 276 295 295 294 302 310 304 298 297 305 302 302 302 300 281 283 280 270 280 281 281 281 281 285 285 286 292 293 293 285 287 295 298 300 298 300 300
5 294 297 302 305 4 271 284 296 296 322 334 339 342 341 336 333 331 337 335 340 339 328 325 328 324 314 307 293 284 283 278 281 283 284 284 283 279 282 289 294 294 298 297
270 280 302 296 305 310 329 352 344 352 7 349 345 337 332 331 329 328 325 325 325 317 314 317 316 315 316 319 322 323 313 301 292 287 279 278 274 276 274 278 276 289 289 290
259 256 234 260 283 309 354 357 5 2 350 347 347 335 333 325 321 319 315 315 308 304 305 309 312 311 314 310 303 303 303 305 311 309 298 284 281 282 276 269 271 274 273 270
246 230 241 261 244 26 27 19 3 355 345 343 340 334 330 323 321 321 316 314 310 308 306 306 303 303 304 303 305 301 294 293 291 292 292 299 298 296 297 300 293 286 277 271
283 291 33 25 19 41 33 8 356 346 346 338 335 331 328 326 320 318 317 315 314 317 317 315 315 315 336 334 329 321 320 320 314 308 299 296 295 294 293 292 289 295 290 274
171 68 101 79 46 43 23 354 347 345 348 343 339 334 333 327 326 324 326 332 333 328 354 357 345 337 329 325 320 318 317 313 311 304 297 295 293 290 291 294 292 284 282 283
60 40 40 26 6 15 357 334 353 349 343 342 340 341 335 332 333 339 352 356 360 355 359 349 339 337 335 332 330 324 325 326 321 310 306 300 293 288 285 284 290 293 294 285
80 347 356 357 354 339 323 345 357 344 349 349 343 335 340 344 349 355 358 352 353 353 356 346 343 347 342 341 332 344 339 338 338 330 329 324 317 310 299 281 277 276 278 277
117 120 111 137 305 300 331 0 360 355 2 342 340 341 345 353 355 345 355 345 353 355 360 348 352 357 353 352 3 352 346 345 345 346 341 338 338 330 322 328 324 293 280 278
116 124 136 276 287 336 352 3 8 351 2 351 351 353 349 353 353 344 352 354 356 351 356 349 359 3 0 2 11 357 357 358 356 353 351 354 348 348 346 345 341 336 345 335
129 133 121 298 42 13 330 29 19 353 7 357 356 352 349 351 355 352 358 359 358 348 352 350 360 6 1 1 7 1 2 2 1 359 1 360 358 357 355 357 355 353 351 352
177 200 243 271 263 309 315 11 33 8 357 3 1 345 338 342 352 357 1 358 350 356 357 353 3 7 4 9 4 0 358 3 4 359 1 360 358 1 1 3 2 0 358 356
217 227 241 250 283 273 290 118 37 352 346 359 357 348 343 355 355 353 338 344 335 4 353 343 3 11 9 12 2 360 358 3 1 360 358 360 3 0 1 0 3 1 0 1
213 219 217 204 245 249 226 148 359 290 329 103 18 345 324 320 327 1 354 340 349 7 354 340 10 15 14 6 5 0 355 358 3 359 355 0 355 355 358 358 359 358 360 0
207 191 206 233 220 244 206 260 284 264 342 176 152 263 250 309 303 252 281 342 353 16 6 353 8 15 12 357 356 357 354 351 0 359 354 357 355 353 356 354 353 357 356 0
192 197 215 220 208 199 193 269 337 72 42 6 306 315 306 281 171 282 327 320 359 6 341 352 2 7 357 350 350 350 350 346 358 0 354 348 352 354 353 351 352 358 354 353
186 194 227 191 185 179 195 147 181 222 157 321 298 286 295 280 296 348 324 358 343 358 340 322 341 350 329 331 348 337 332 337 347 349 352 347 341 347 348 348 348 350 350 350
168 218 207 217 134 158 175 204 166 230 256 231 239 268 279 309 327 350 356 332 328 326 319 316 313 337 340 341 313 312 312 316 344 350 343 341 345 340 344 344 345 344 347 349